This demonstration page uses our WeatherBlox Daily Observations layout. Learn more.

Left ArrowRight Arrow

38.88101, -77.10428

Hourly Observations for July 30, 2021

Temp ( °F °C ) Dew Point ( °F °C ) Humidity (%) Winds ( mph kmh ) Pressure ( in mb ) Visibility ( mi km ) Precip ( " mm )
12:52 am 00:52 Mostly Cloudy 77 25 72 22.2 85 85 SSW 6 9 29.79 1009 10 16 N/A
1:52 am 01:52 Mostly Cloudy 77 25 73 22.8 88 88 N N/A 29.78 1008 10 16 N/A
2:52 am 02:52 Mostly Cloudy 78 25.6 70 21.1 76 76 N 3 6 29.76 1008 10 16 N/A
3:52 am 03:52 Mostly Cloudy 76 24.4 71 21.7 85 85 N N/A 29.78 1008 10 16 N/A
4:52 am 04:52 Mostly Cloudy 78 25.6 69 20.6 74 74 N N/A 29.79 1009 10 16 N/A
5:52 am 05:52 Mostly Clear 78 25.6 68 20 71 71 WNW 7 11 29.80 1009 10 16 N/A
6:52 am 06:52 Mostly Sunny 79 26.1 68 20 69 69 NW 12 19 29.82 1010 10 16 N/A
7:52 am 07:52 Mostly Sunny 82 27.8 68 20 63 63 NW 7 11 29.83 1010 10 16 N/A
8:52 am 08:52 Mostly Sunny 83 28.3 68 20 61 61 NW 12 19 29.84 1010 10 16 N/A
9:52 am 09:52 Partly Cloudy 84 28.9 68 20 59 59 NW 14 22 29.85 1011 10 16 N/A
10:52 am 10:52 Mostly Cloudy 84 28.9 66 18.9 55 55 NNW 14 22 29.86 1011 10 16 N/A
11:52 am 11:52 Partly Cloudy 87 30.6 64 17.8 46 46 NW 12 19 29.86 1011 10 16 N/A
12:52 pm 12:52 Mostly Sunny 88 31.1 65 18.3 46 46 NNW 9 15 29.86 1011 10 16 N/A
1:52 pm 13:52 Mostly Sunny 86 30 64 17.8 48 48 N 12 19 29.86 1011 10 16 N/A
2:52 pm 14:52 Partly Cloudy 89 31.7 62 16.7 41 41 WNW 13 20 29.87 1011 10 16 N/A
3:52 pm 15:52 Partly Cloudy 89 31.7 58 14.4 35 35 NW 15 24 29.86 1011 10 16 N/A
4:52 pm 16:52 Mostly Cloudy 90 32.2 55 12.8 31 31 NW 16 26 29.87 1011 10 16 N/A
5:52 pm 17:52 Mostly Cloudy 89 31.7 55 12.8 31 31 NW 14 22 29.88 1012 10 16 N/A
6:52 pm 18:52 Partly Cloudy 87 30.6 53 11.7 31 31 NW 14 22 29.89 1012 10 16 N/A
7:52 pm 19:52 Mostly Sunny 85 29.4 55 12.8 36 36 NW 12 19 29.90 1013 10 16 N/A
8:52 pm 20:52 Partly Cloudy 83 28.3 54 12.2 37 37 NNW 10 17 29.92 1013 10 16 N/A
9:52 pm 21:52 Partly Cloudy 80 26.7 56 13.3 44 44 NNW 13 20 29.94 1014 10 16 N/A
10:52 pm 22:52 Partly Cloudy 79 26.1 55 12.8 44 44 N 14 22 29.95 1014 10 16 N/A
11:52 pm 23:52 Partly Cloudy 77 25 56 13.3 48 48 NNW 10 17 29.96 1015 10 16 N/A

Powered by AerisWeather